Retour au catalogue

STARLINK-5894

ActifCommunicationsVLEO
NORAD 55965·PAYLOAD·🇺🇸 United States

Lancé Mar 17, 2023 depuis Vandenberg Space Force Base

Loading…

Prochains Passages (prochaines 24 heures)

TLE

FraisSource: CelesTrak SupGP

Époque: Sep 15, 2026, 02:31 UTC

1 55965C 23037BD  26258.10534722  .00030733  00000+0  25757-2 0  2583
2 55965  70.0008 146.7317 0002726 273.9973 288.4252 14.98313427    17

Suivez STARLINK-5894 en temps réel avec AllMySat

Download on the App Store